User: anonymous   Login
Location: Granada
(37.1830°N, 3.6000°W)
Time: 22:38:17
(UTC+01:00)
Language:

Iridium 70 - Orbit

View from above orbital plane
View from above orbital plane
View from above satellite
View from above satellite

Ground track
Ground track

The orbit data is extracted from the following two-line orbital elements,

1 25342U 98032A   17346.47041519  .00000030  00000-0  36374-5 0  9991
2 25342  86.3961 149.7891 0002089  97.5705 286.4967 14.34218303 24650
Epoch (UTC): 12 December 2017 11:17:23
Eccentricity: 0.0002089
inclination: 86.3961°
perigee height: 776 km
apogee height: 779 km
right ascension of ascending node: 149.7891°
argument of perigee: 97.5705°
revolutions per day: 14.34218303
mean anomaly at epoch: 286.4967°
orbit number at epoch: 2465

The dashed part of the orbit path shows where the satellite is in the earth's shadow,  

DLR